SL-14 R/B, 22188

Orbit data source: Space-Track

SL-14 R/B, 22188 is space debris in LEO originally from a launch on Tue, 20 Oct 1992 UTC launched from the Plesetsk Missile And Space Complex (PKMTR). Debris objects in space refer to the collection of defunct objects orbiting the Earth. Examples of debris include non-operational satellites, rocket bodies, and fragments generated from explosions, collisions, or faulty payload assembly.

Loading next visibility...
Identifier
22188, 1992-068G
Orbit
LEO
Country
Flag of CISCIS
Related business
Manufacturer
Yuzhnoe
Mission
Spacecraft
Bus & Motor
S5M, Unknown motor
Mass
1,600 kg wet, 1,600 kg dry
Launch date (UTC)
1992-10-20 (33 years ago)
Launch vehicle
Unknown
Launch site
Plesetsk Missile And Space Complex (PKMTR)
Object type
Payload
Rocket body
Debris
Shape & HBR
Cyl, 1.4 m
Radar Cross Section
7.351 m², Large (>1 m²)

Expand to show TLE details & history
Last TLE update: 8 hours ago

TLE from 8 hours ago
0 SL-14 R/B
1 22188U 92068G   25315.30268984  .00000035  00000-0  15438-3 0  9994
2 22188  82.6001 231.8887 0044295 247.0975 232.9323 12.54917291514279
Epoch: 2025-11-11T07:15Z
TLE epoch observation values (Epoch: 2025-11-11T07:15:52.402Z)
Latitude
59.63316°
Longitude
-120.51362°
Altitude
1,475.058 km
Speed
7.121 km/s
True Right ascension
02h 36m 35s
True Declination
59° 29' 48"
Sunlit
Object was in full shadow at epoch
Visualization orbit readout
Latitude
Unknown
Longitude
Unknown
Altitude
Unknown
Speed
Unknown
Apparent Right ascension
Unknown
Apparent Declination
Unknown
Sunlit
N/A
Visualization observer readout
Local Sidereal Time
11:11:06
Azimuth
Unknown
Elevation
Unknown
Doppler factor
Unknown
Orbital elements
Apogee altitude
1,475.961 km
Perigee altitude
1,406.688 km
Semi-major axis
7,819.462 km
Eccentricity
0.00443
Inclination
82.6001°
RAAN
231.8887°
Arg. of periapsis
247.0975°
True anomaly
232.52864°
Mean anomaly
232.9323°
Eccentric anomaly
232.73033°
Mean motion
3.1389 °/min
Orbital period
114.69 mins
BSTAR
0.00015438
Loading maneuver chart data...
Computing Atmospheric mass density...
Loading historical data...
Loading historical data...
Loading historical data...
Loading historical data...
Loading historical data...
Loading historical data...
Loading historical data...

Documentation

Showing up to 5 results
|